Terug naar catalogus

FALCON 9 DEB

ActiefVLEO
NORAD 48608·DEBRIS·🇺🇸 United States

Gelanceerd May 15, 2021 vanaf Cape Canaveral Space Force Station

Loading…

Volgende Passages (komende 24 uur)

TLE

VersSource: Space-Track

Epoch: Sep 14, 2026, 09:53 UTC

1 48608U 21041BH  26257.41212849  .00002874  00000-0  17140-3 0  9994
2 48608  53.0289  48.5827 0010755  54.8779 305.3219 15.14325539292944

Volg FALCON 9 DEB in realtime met AllMySat

Download on the App Store